Regional Weather Roundup
Issued by NWS

Home | Current Version | Previous Version | Text Only | Print | Product List | Glossary Off
Versions: 1 2 3 4 5 6 7 8 9 10 11 12 13 14 15 16 17 18 19 20 21 22 23 24 25 26 27 28 29 30 31 32 33 34 35 36 37 38 39 40 41 42 43 44 45 46 47 48 49 50

550
ASUS43 KLSX 221957
RWRMO

WEATHER SUMMARY FOR MISSOURI
NATIONAL WEATHER SERVICE SPRINGFIELD MO
200 PM CST MON JAN 22 2018

NOTE: "FAIR" INDICATES FEW OR NO CLOUDS BELOW 12,000 FEET WITH NO
       SIGNIFICANT WEATHER AND/OR OBSTRUCTIONS TO VISIBILITY.
       CURRENT SKY AND/OR WEATHER CONDITIONS ARE NOT AVAILABLE FOR
       CHILLICOTHE AND FARMINGTON.

MOZ001>031-035>038-043-044-053-054-222100-
...NORTHERN AND WESTERN MISSOURI...

CITY           SKY/WX    TMP DP  RH WIND       PRES   REMARKS
KANSAS CTY INT LGT RAIN  35  34  96 W12G20    29.41S WCI  27
LEE`S SUMMIT   CLOUDY    37  35  92 W16G25    29.43S WCI  28
ST JOSEPH      LGT RAIN  35  35 100 W9        29.40S FOG     WCI  28
CHILLICOTHE      N/A     38  33  82 S12G21    29.42F
KIRKSVILLE     CLOUDY    40  33  76 S18G24    29.43F

$$
MOZ066>068-077>081-088>096-101>105-222100-
...SOUTHWEST MISSOURI...

CITY           SKY/WX    TMP DP  RH WIND       PRES   REMARKS
SPRINGFIELD    CLOUDY    42  29  59 SW23G41   29.58F
JOPLIN         CLOUDY    41  32  70 SW21G36   29.62S
BRANSON        CLOUDY    41  27  56 SW17G29   29.66F

$$
MOZ032>034-039>042-045>050-055>058-069>072-222100-
...CENTRAL MISSOURI...

CITY           SKY/WX    TMP DP  RH WIND       PRES   REMARKS
COLUMBIA       NOT AVBL
JEFFERSON CITY CLOUDY    43  29  57 S20       29.53F
ROLLA          CLOUDY    42  29  59 SW16G28   29.55F
SEDALIA        LGT RAIN  40  35  83 SW22G35   29.48F WCI  30
WARRENSBURG    DRIZZLE   37  32  81 S16G26    29.45F WCI  28

$$
MOZ051-052-059>065-222100-
...EAST CENTRAL MISSOURI...

CITY           SKY/WX    TMP DP  RH WIND       PRES   REMARKS
ST LOUIS INTL  MOSUNNY   60  30  32 S25G32    29.45F

$$
MOZ072>076-082>087-097>100-106>115-222100-
...SOUTH CENTRAL AND SOUTHEAST MISSOURI...

CITY           SKY/WX    TMP DP  RH WIND       PRES   REMARKS
CAPE GIRARDEAU FAIR      58  43  57 S21G39    29.57F
POPLAR BLUFF   FAIR      58  39  49 S24G38    29.60F
WEST PLAINS    MOSUNNY   49  28  44 W21G36    29.61F

$$



USA.gov is the U.S. government's official web portal to all federal, state and local government web resources and services.